Time,TemperatureF,DewpointF,PressureIn,WindDirection,WindDirectionDegrees,WindSpeedMPH,WindSpeedGustMPH,Humidity,HourlyPrecipIn,Conditions,Clouds,dailyrainin,SoftwareType,DateUTC
2013-01-19 00:04:00,46.4,11.6,26.25,ENE,71,0.0,0.0,24,0.00,,,-99.99,VWS V12.07,2013-01-19 08:04:00,
2013-01-19 00:10:00,46.0,11.3,26.25,ENE,71,0.0,0.0,24,0.00,,,-99.99,VWS V12.07,2013-01-19 08:10:00,
2013-01-19 00:16:00,45.1,10.5,26.25,ENE,71,0.0,0.0,24,0.00,,,-99.99,VWS V12.07,2013-01-19 08:16:00,
2013-01-19 00:22:00,44.8,10.2,26.25,ENE,78,0.0,2.2,24,0.00,,,-99.99,VWS V12.07,2013-01-19 08:22:00,
2013-01-19 00:28:00,45.7,11.0,26.25,ENE,78,0.0,2.2,24,0.00,,,-99.99,VWS V12.07,2013-01-19 08:28:00,
2013-01-19 00:34:00,45.5,10.8,26.25,ENE,78,0.0,2.2,24,0.00,,,-99.99,VWS V12.07,2013-01-19 08:34:00,
2013-01-19 00:40:00,45.7,11.0,26.25,ENE,78,0.0,2.2,24,0.00,,,-99.99,VWS V12.07,2013-01-19 08:40:00,
2013-01-19 00:46:00,45.9,11.1,26.25,ENE,78,0.0,0.0,24,0.00,,,-99.99,VWS V12.07,2013-01-19 08:46:00,
2013-01-19 00:52:00,45.9,11.1,26.25,ENE,73,0.0,5.4,24,0.00,,,-99.99,VWS V12.07,2013-01-19 08:52:00,
2013-01-19 00:58:00,46.2,11.4,26.25,NE,42,7.5,7.6,24,0.00,,,-99.99,VWS V12.07,2013-01-19 08:58:00,
2013-01-19 01:04:00,47.3,12.4,26.25,ENE,71,4.8,4.8,24,0.00,,,-99.99,VWS V12.07,2013-01-19 09:04:00,
2013-01-19 01:10:00,48.0,13.0,26.25,ENE,67,8.6,8.6,24,0.00,,,-99.99,VWS V12.07,2013-01-19 09:10:00,
2013-01-19 01:16:00,49.1,12.9,26.25,ENE,58,0.0,7.2,23,0.00,,,-99.99,VWS V12.07,2013-01-19 09:16:00,
2013-01-19 01:22:00,48.0,13.0,26.25,ENE,75,0.0,2.7,24,0.00,,,-99.99,VWS V12.07,2013-01-19 09:22:00,
2013-01-19 01:28:00,47.3,12.4,26.25,ENE,59,0.0,6.3,24,0.00,,,-99.99,VWS V12.07,2013-01-19 09:28:00,
2013-01-19 01:34:00,47.1,12.2,26.25,NE,44,6.4,6.4,24,0.00,,,-99.99,VWS V12.07,2013-01-19 09:34:00,
2013-01-19 01:40:00,47.7,12.7,26.25,East,83,3.2,6.3,24,0.00,,,-99.99,VWS V12.07,2013-01-19 09:40:00,
2013-01-19 01:46:00,48.0,13.0,26.25,East,83,0.0,5.4,24,0.00,,,-99.99,VWS V12.07,2013-01-19 09:46:00,
2013-01-19 01:52:00,48.4,12.3,26.25,ENE,71,0.0,7.2,23,0.00,,,-99.99,VWS V12.07,2013-01-19 09:52:00,
2013-01-19 01:58:00,47.7,12.7,26.25,ENE,71,0.0,7.2,24,0.00,,,-99.99,VWS V12.07,2013-01-19 09:58:00,
2013-01-19 02:04:00,47.1,12.2,26.25,SE,132,0.0,4.9,24,0.00,,,-99.99,VWS V12.07,2013-01-19 10:04:00,
2013-01-19 02:10:00,46.9,12.1,26.25,SE,132,0.0,4.9,24,0.00,,,-99.99,VWS V12.07,2013-01-19 10:10:00,
2013-01-19 02:16:00,47.3,12.4,26.25,SE,132,0.0,4.9,24,0.00,,,-99.99,VWS V12.07,2013-01-19 10:16:00,
2013-01-19 02:22:00,47.1,12.2,26.25,SE,132,0.0,0.0,24,0.00,,,-99.99,VWS V12.07,2013-01-19 10:22:00,
2013-01-19 02:28:00,46.6,11.7,26.25,NNE,26,4.3,4.5,24,0.00,,,-99.99,VWS V12.07,2013-01-19 10:28:00,
2013-01-19 02:34:00,46.0,11.3,26.25,NE,47,0.0,6.3,24,0.00,,,-99.99,VWS V12.07,2013-01-19 10:34:00,
2013-01-19 02:40:00,45.5,10.8,26.25,NNE,32,3.2,3.2,24,0.00,,,-99.99,VWS V12.07,2013-01-19 10:40:00,
2013-01-19 02:46:00,46.0,11.3,26.25,NNE,17,4.3,6.3,24,0.00,,,-99.99,VWS V12.07,2013-01-19 10:46:00,
2013-01-19 02:52:00,46.2,11.4,26.25,ENE,59,0.0,6.3,24,0.00,,,-99.99,VWS V12.07,2013-01-19 10:52:00,
2013-01-19 02:58:00,46.2,11.4,26.25,NNE,26,3.8,7.6,24,0.00,,,-99.99,VWS V12.07,2013-01-19 10:58:00,
2013-01-19 03:04:00,46.2,11.4,26.25,ENE,59,9.1,9.1,24,0.00,,,-99.99,VWS V12.07,2013-01-19 11:04:00,
2013-01-19 03:10:00,46.0,11.3,26.25,NNE,33,3.8,8.3,24,0.00,,,-99.99,VWS V12.07,2013-01-19 11:10:00,
2013-01-19 04:48:00,43.7,10.2,26.25,NE,37,4.3,8.1,25,0.00,,,-99.99,VWS V12.07,2013-01-19 12:48:00,
2013-01-19 04:50:00,44.2,10.7,26.25,NNE,33,4.3,8.1,25,0.00,,,-99.99,VWS V12.07,2013-01-19 12:50:00,
2013-01-19 04:52:00,44.2,10.7,26.25,NNE,18,0.0,8.1,25,0.00,,,-99.99,VWS V12.07,2013-01-19 12:52:00,
2013-01-19 04:58:00,44.8,10.2,26.25,NNE,22,3.2,8.1,24,0.00,,,-99.99,VWS V12.07,2013-01-19 12:58:00,
2013-01-19 05:00:00,44.8,10.2,26.25,NNE,32,3.8,8.1,24,0.00,,,-99.99,VWS V12.07,2013-01-19 13:00:00,
2013-01-19 05:06:00,45.1,10.5,26.25,North,10,0.0,8.1,24,0.00,,,-99.99,VWS V12.07,2013-01-19 13:06:00,
2013-01-19 05:12:00,44.8,10.2,26.25,NNE,25,9.9,9.9,24,0.00,,,-99.99,VWS V12.07,2013-01-19 13:12:00,
2013-01-19 05:18:00,44.8,10.2,26.25,NE,54,5.9,8.3,24,0.00,,,-99.99,VWS V12.07,2013-01-19 13:18:00,
2013-01-19 05:24:00,44.8,10.2,26.25,NE,40,8.6,8.6,24,0.00,,,-99.99,VWS V12.07,2013-01-19 13:24:00,
2013-01-19 05:32:00,46.2,11.4,26.25,NNW,343,4.3,8.1,24,0.00,,,-99.99,VWS V12.07,2013-01-19 13:32:00,
2013-01-19 05:38:00,46.8,11.9,26.28,NE,42,4.3,8.7,24,0.00,,,-99.99,VWS V12.07,2013-01-19 13:38:00,
2013-01-19 05:44:00,47.3,12.4,26.28,NE,55,4.3,7.6,24,0.00,,,-99.99,VWS V12.07,2013-01-19 13:44:00,
2013-01-19 05:50:00,47.3,12.4,26.28,NE,53,2.7,7.6,24,0.00,,,-99.99,VWS V12.07,2013-01-19 13:50:00,
2013-01-19 05:56:00,46.6,11.7,26.28,NNE,29,4.3,7.6,24,0.00,,,-99.99,VWS V12.07,2013-01-19 13:56:00,
2013-01-19 06:02:00,46.6,11.7,26.28,NE,38,4.3,5.4,24,0.00,,,-99.99,VWS V12.07,2013-01-19 14:02:00,
2013-01-19 06:08:00,46.4,11.6,26.28,NE,36,5.4,7.6,24,0.00,,,-99.99,VWS V12.07,2013-01-19 14:08:00,
2013-01-19 06:14:00,46.2,11.4,26.28,ENE,72,7.0,7.6,24,0.00,,,-99.99,VWS V12.07,2013-01-19 14:14:00,
2013-01-19 06:20:00,46.9,12.1,26.28,NE,35,7.0,8.3,24,0.00,,,-99.99,VWS V12.07,2013-01-19 14:20:00,
2013-01-19 06:26:00,46.9,12.1,26.28,NE,37,9.7,9.7,24,0.00,,,-99.99,VWS V12.07,2013-01-19 14:26:00,
2013-01-19 06:32:00,47.1,12.2,26.28,NE,48,3.2,8.7,24,0.00,,,-99.99,VWS V12.07,2013-01-19 14:32:00,
2013-01-19 06:38:00,46.8,11.9,26.28,East,79,0.0,8.7,24,0.00,,,-99.99,VWS V12.07,2013-01-19 14:38:00,
2013-01-19 06:44:00,46.6,11.7,26.28,North,358,4.8,8.7,24,0.00,,,-99.99,VWS V12.07,2013-01-19 14:44:00,
2013-01-19 06:50:00,46.6,11.7,26.28,NE,41,3.8,10.5,24,0.00,,,-99.99,VWS V12.07,2013-01-19 14:50:00,
2013-01-19 06:56:00,46.4,11.6,26.28,East,90,4.8,10.5,24,0.00,,,-99.99,VWS V12.07,2013-01-19 14:56:00,
2013-01-19 07:02:00,45.9,11.1,26.28,NE,56,7.5,7.5,24,0.00,,,-99.99,VWS V12.07,2013-01-19 15:02:00,
2013-01-19 07:08:00,47.1,12.2,26.28,NNE,23,0.0,8.7,24,0.00,,,-99.99,VWS V12.07,2013-01-19 15:08:00,
2013-01-19 07:14:00,46.9,12.1,26.28,North,356,4.8,8.7,24,0.00,,,-99.99,VWS V12.07,2013-01-19 15:14:00,
2013-01-19 07:20:00,46.8,11.9,26.28,North,8,0.0,0.0,24,0.00,,,-99.99,VWS V12.07,2013-01-19 15:20:00,
2013-01-19 07:26:00,46.9,12.1,26.28,North,354,0.0,7.6,24,0.00,,,-99.99,VWS V12.07,2013-01-19 15:26:00,
2013-01-19 07:32:00,46.6,11.7,26.28,NNE,26,0.0,7.6,24,0.00,,,-99.99,VWS V12.07,2013-01-19 15:32:00,
2013-01-19 07:38:00,47.3,12.4,26.31,NE,50,7.0,7.6,24,0.00,,,-99.99,VWS V12.07,2013-01-19 15:38:00,
2013-01-19 07:44:00,48.6,12.5,26.31,NNW,345,9.9,10.1,23,0.00,,,-99.99,VWS V12.07,2013-01-19 15:44:00,
2013-01-19 07:50:00,49.6,13.4,26.31,ESE,103,4.3,10.1,23,0.00,,,-99.99,VWS V12.07,2013-01-19 15:50:00,
2013-01-19 07:56:00,50.0,13.7,26.31,NE,50,4.8,10.1,23,0.00,,,-99.99,VWS V12.07,2013-01-19 15:56:00,
2013-01-19 08:02:00,50.2,13.8,26.31,NE,52,0.0,0.0,23,0.00,,,-99.99,VWS V12.07,2013-01-19 16:02:00,
2013-01-19 08:08:00,50.4,14.0,26.31,North,353,0.0,6.7,23,0.00,,,-99.99,VWS V12.07,2013-01-19 16:08:00,
2013-01-19 08:14:00,51.8,15.2,26.28,North,3,3.2,6.7,23,0.00,,,-99.99,VWS V12.07,2013-01-19 16:14:00,
2013-01-19 08:20:00,57.4,20.9,26.28,North,9,4.8,4.8,24,0.00,,,-99.99,VWS V12.07,2013-01-19 16:20:00,
2013-01-19 08:26:00,65.3,25.5,26.31,NNW,344,9.7,9.7,22,0.00,,,-99.99,VWS V12.07,2013-01-19 16:26:00,
2013-01-19 08:32:00,67.8,27.6,26.31,North,355,4.3,8.1,22,0.00,,,-99.99,VWS V12.07,2013-01-19 16:32:00,
2013-01-19 08:38:00,70.0,28.3,26.31,North,5,7.5,8.1,21,0.00,,,-99.99,VWS V12.07,2013-01-19 16:38:00,
2013-01-19 08:44:00,68.2,27.9,26.31,North,355,4.3,11.0,22,0.00,,,-99.99,VWS V12.07,2013-01-19 16:44:00,
2013-01-19 08:50:00,69.3,28.8,26.31,WNW,293,3.2,11.0,22,0.00,,,-99.99,VWS V12.07,2013-01-19 16:50:00,
2013-01-19 08:56:00,70.3,28.6,26.31,North,1,7.0,11.0,21,0.00,,,-99.99,VWS V12.07,2013-01-19 16:56:00,
2013-01-19 09:02:00,70.5,28.7,26.31,NNW,334,9.1,9.1,21,0.00,,,-99.99,VWS V12.07,2013-01-19 17:02:00,
2013-01-19 09:08:00,70.3,28.6,26.31,NW,314,4.8,8.3,21,0.00,,,-99.99,VWS V12.07,2013-01-19 17:08:00,
2013-01-19 09:14:00,68.9,28.5,26.31,NNE,15,9.1,9.1,22,0.00,,,-99.99,VWS V12.07,2013-01-19 17:14:00,
2013-01-19 09:20:00,68.2,27.9,26.31,NNE,28,3.2,9.6,22,0.00,,,-99.99,VWS V12.07,2013-01-19 17:20:00,
2013-01-19 09:28:00,72.3,30.2,26.31,NE,42,7.0,8.1,21,0.00,,,-99.99,VWS V12.07,2013-01-19 17:28:00,
2013-01-19 09:34:00,68.2,27.9,26.31,NE,42,6.4,8.7,22,0.00,,,-99.99,VWS V12.07,2013-01-19 17:34:00,
2013-01-19 09:40:00,69.3,28.8,26.31,NNE,19,10.5,10.5,22,0.00,,,-99.99,VWS V12.07,2013-01-19 17:40:00,
2013-01-19 09:48:00,69.4,29.0,26.31,North,350,10.5,10.5,22,0.00,,,-99.99,VWS V12.07,2013-01-19 17:48:00,
2013-01-19 09:58:00,72.5,30.4,26.34,East,90,0.0,10.1,21,0.00,,,-99.99,VWS V12.07,2013-01-19 17:58:00,
2013-01-19 10:08:00,71.4,29.5,26.34,NW,324,8.6,8.6,21,0.00,,,-99.99,VWS V12.07,2013-01-19 18:08:00,
2013-01-19 10:14:00,72.7,30.5,26.31,North,11,5.9,8.3,21,0.00,,,-99.99,VWS V12.07,2013-01-19 18:14:00,
2013-01-19 10:20:00,71.1,29.2,26.31,NW,309,15.3,15.3,21,0.00,,,-99.99,VWS V12.07,2013-01-19 18:20:00,
2013-01-19 10:28:00,65.8,26.0,26.31,North,355,6.4,12.8,22,0.00,,,-99.99,VWS V12.07,2013-01-19 18:28:00,
2013-01-19 10:34:00,64.2,25.7,26.31,NNE,21,7.0,12.8,23,0.00,,,-99.99,VWS V12.07,2013-01-19 18:34:00,
2013-01-19 10:44:00,65.1,25.4,26.31,North,11,10.5,13.2,22,0.00,,,-99.99,VWS V12.07,2013-01-19 18:44:00,
2013-01-19 10:50:00,62.2,24.0,26.31,North,3,10.5,15.0,23,0.00,,,-99.99,VWS V12.07,2013-01-19 18:50:00,
2013-01-19 11:00:00,61.7,23.5,26.31,NE,48,5.9,11.0,23,0.00,,,-99.99,VWS V12.07,2013-01-19 19:00:00,
2013-01-19 11:10:00,62.2,24.0,26.31,NNW,335,12.1,13.6,23,0.00,,,-99.99,VWS V12.07,2013-01-19 19:10:00,
2013-01-19 11:16:00,62.2,24.0,26.31,North,7,9.9,13.6,23,0.00,,,-99.99,VWS V12.07,2013-01-19 19:16:00,
2013-01-19 11:22:00,62.6,24.3,26.31,North,353,11.0,15.0,23,0.00,,,-99.99,VWS V12.07,2013-01-19 19:22:00,
2013-01-19 11:28:00,63.0,24.6,26.28,North,359,11.5,15.0,23,0.00,,,-99.99,VWS V12.07,2013-01-19 19:28:00,
2013-01-19 11:34:00,63.3,24.9,26.28,NNE,30,10.5,15.0,23,0.00,,,-99.99,VWS V12.07,2013-01-19 19:34:00,
2013-01-19 11:44:00,63.5,25.1,26.28,NW,315,9.9,13.2,23,0.00,,,-99.99,VWS V12.07,2013-01-19 19:44:00,
2013-01-19 11:50:00,63.7,25.2,26.28,North,3,3.2,15.0,23,0.00,,,-99.99,VWS V12.07,2013-01-19 19:50:00,
2013-01-19 11:58:00,64.2,25.7,26.28,NNE,21,11.5,15.0,23,0.00,,,-99.99,VWS V12.07,2013-01-19 19:58:00,
2013-01-19 12:04:00,64.2,25.7,26.28,North,9,14.2,14.2,23,0.00,,,-99.99,VWS V12.07,2013-01-19 20:04:00,
2013-01-19 12:10:00,63.7,25.2,26.28,North,11,11.5,13.6,23,0.00,,,-99.99,VWS V12.07,2013-01-19 20:10:00,
2013-01-19 12:18:00,63.5,25.1,26.28,North,9,15.8,15.8,23,0.00,,,-99.99,VWS V12.07,2013-01-19 20:18:00,
2013-01-19 12:24:00,63.1,24.8,26.28,NNE,13,12.6,15.0,23,0.00,,,-99.99,VWS V12.07,2013-01-19 20:24:00,
2013-01-19 12:34:00,63.9,25.4,26.28,NNW,344,15.3,15.3,23,0.00,,,-99.99,VWS V12.07,2013-01-19 20:34:00,
2013-01-19 12:40:00,63.9,25.4,26.25,North,360,10.5,10.5,23,0.00,,,-99.99,VWS V12.07,2013-01-19 20:40:00,
2013-01-19 12:50:00,64.6,24.9,26.25,North,6,15.3,15.3,22,0.00,,,-99.99,VWS V12.07,2013-01-19 20:50:00,
2013-01-19 13:00:00,63.7,25.2,26.25,NNE,26,7.0,8.7,23,0.00,,,-99.99,VWS V12.07,2013-01-19 21:00:00,
2013-01-19 13:08:00,63.9,25.4,26.25,NE,52,10.5,12.8,23,0.00,,,-99.99,VWS V12.07,2013-01-19 21:08:00,
2013-01-19 13:14:00,64.6,24.9,26.25,East,83,6.4,12.8,22,0.00,,,-99.99,VWS V12.07,2013-01-19 21:14:00,
2013-01-19 13:22:00,64.8,25.1,26.25,NE,44,9.9,10.5,22,0.00,,,-99.99,VWS V12.07,2013-01-19 21:22:00,
2013-01-19 13:28:00,64.4,24.8,26.25,North,350,13.2,13.2,22,0.00,,,-99.99,VWS V12.07,2013-01-19 21:28:00,
2013-01-19 13:36:00,63.3,24.9,26.25,NNW,345,15.8,15.8,23,0.00,,,-99.99,VWS V12.07,2013-01-19 21:36:00,
2013-01-19 13:44:00,63.1,24.8,26.25,North,356,15.3,15.4,23,0.00,,,-99.99,VWS V12.07,2013-01-19 21:44:00,
2013-01-19 13:52:00,63.1,24.8,26.25,NNW,346,12.6,15.4,23,0.00,,,-99.99,VWS V12.07,2013-01-19 21:52:00,
2013-01-19 13:58:00,63.3,24.9,26.25,NNW,334,14.8,15.4,23,0.00,,,-99.99,VWS V12.07,2013-01-19 21:58:00,
2013-01-19 14:04:00,63.0,24.6,26.25,NE,40,12.6,12.8,23,0.00,,,-99.99,VWS V12.07,2013-01-19 22:04:00,
2013-01-19 14:10:00,62.6,24.3,26.25,NE,34,9.9,13.2,23,0.00,,,-99.99,VWS V12.07,2013-01-19 22:10:00,
2013-01-19 14:18:00,63.0,24.6,26.25,NW,319,4.8,13.2,23,0.00,,,-99.99,VWS V12.07,2013-01-19 22:18:00,
2013-01-19 14:24:00,63.0,24.6,26.25,NNE,31,4.8,11.9,23,0.00,,,-99.99,VWS V12.07,2013-01-19 22:24:00,
2013-01-19 14:30:00,63.3,24.9,26.25,North,349,7.5,13.2,23,0.00,,,-99.99,VWS V12.07,2013-01-19 22:30:00,
2013-01-19 14:40:00,63.7,25.2,26.25,North,4,12.6,12.6,23,0.00,,,-99.99,VWS V12.07,2013-01-19 22:40:00,
2013-01-19 14:46:00,64.0,25.5,26.25,North,350,13.7,14.5,23,0.00,,,-99.99,VWS V12.07,2013-01-19 22:46:00,
2013-01-19 14:52:00,64.0,25.5,26.25,North,358,9.1,14.5,23,0.00,,,-99.99,VWS V12.07,2013-01-19 22:52:00,
2013-01-19 15:06:00,63.5,25.1,26.25,NNE,27,9.1,12.8,23,0.00,,,-99.99,VWS V12.07,2013-01-19 23:06:00,
2013-01-19 15:12:00,64.4,24.8,26.25,North,358,9.7,12.8,22,0.00,,,-99.99,VWS V12.07,2013-01-19 23:12:00,
2013-01-19 15:18:00,65.7,25.8,26.25,NNW,329,9.1,12.8,22,0.00,,,-99.99,VWS V12.07,2013-01-19 23:18:00,
2013-01-19 15:24:00,64.9,25.2,26.25,NNE,13,8.1,10.5,22,0.00,,,-99.99,VWS V12.07,2013-01-19 23:24:00,
2013-01-19 15:32:00,64.0,25.5,26.25,NNE,17,0.0,10.5,23,0.00,,,-99.99,VWS V12.07,2013-01-19 23:32:00,
2013-01-19 15:38:00,64.2,25.7,26.25,NNE,17,7.5,12.8,23,0.00,,,-99.99,VWS V12.07,2013-01-19 23:38:00,
2013-01-19 15:44:00,63.9,25.4,26.25,North,352,9.7,10.5,23,0.00,,,-99.99,VWS V12.07,2013-01-19 23:44:00,
2013-01-19 15:50:00,63.7,25.2,26.25,North,354,9.9,11.9,23,0.00,,,-99.99,VWS V12.07,2013-01-19 23:50:00,
2013-01-19 15:58:00,63.0,24.6,26.25,NNE,19,9.1,11.9,23,0.00,,,-99.99,VWS V12.07,2013-01-19 23:58:00,
2013-01-19 16:04:00,61.7,23.5,26.25,NNE,15,13.2,13.2,23,0.00,,,-99.99,VWS V12.07,2013-01-20 00:04:00,
2013-01-19 16:10:00,61.2,23.1,26.25,NNW,340,10.5,11.0,23,0.00,,,-99.99,VWS V12.07,2013-01-20 00:10:00,
2013-01-19 16:18:00,59.7,22.9,26.25,North,358,9.9,11.0,24,0.00,,,-99.99,VWS V12.07,2013-01-20 00:18:00,
2013-01-19 16:24:00,59.4,22.6,26.25,NNE,12,7.5,8.7,24,0.00,,,-99.99,VWS V12.07,2013-01-20 00:24:00,
2013-01-19 16:30:00,59.7,22.9,26.25,NNE,29,4.3,8.7,24,0.00,,,-99.99,VWS V12.07,2013-01-20 00:30:00,
2013-01-19 16:38:00,58.3,21.7,26.25,North,360,7.5,8.7,24,0.00,,,-99.99,VWS V12.07,2013-01-20 00:38:00,
2013-01-19 16:44:00,57.2,20.8,26.25,NNE,20,9.9,11.0,24,0.00,,,-99.99,VWS V12.07,2013-01-20 00:44:00,
2013-01-19 16:50:00,56.3,20.0,26.25,NE,53,3.8,11.0,24,0.00,,,-99.99,VWS V12.07,2013-01-20 00:50:00,
2013-01-19 16:56:00,55.6,19.4,26.25,ENE,73,0.0,11.0,24,0.00,,,-99.99,VWS V12.07,2013-01-20 00:56:00,
2013-01-19 17:02:00,54.9,19.7,26.25,East,83,0.0,5.8,25,0.00,,,-99.99,VWS V12.07,2013-01-20 01:02:00,
2013-01-19 17:08:00,54.0,19.0,26.25,NE,52,3.8,6.3,25,0.00,,,-99.99,VWS V12.07,2013-01-20 01:08:00,
2013-01-19 17:14:00,53.6,18.6,26.25,NNE,24,6.4,7.6,25,0.00,,,-99.99,VWS V12.07,2013-01-20 01:14:00,
2013-01-19 17:22:00,53.2,18.3,26.25,ENE,70,9.1,10.1,25,0.00,,,-99.99,VWS V12.07,2013-01-20 01:22:00,
2013-01-19 17:28:00,52.3,17.6,26.25,NNE,32,5.9,10.1,25,0.00,,,-99.99,VWS V12.07,2013-01-20 01:28:00,
2013-01-19 17:36:00,52.0,17.3,26.25,NE,38,4.3,10.1,25,0.00,,,-99.99,VWS V12.07,2013-01-20 01:36:00,
2013-01-19 17:42:00,51.1,14.6,26.28,NE,42,0.0,3.1,23,0.00,,,-99.99,VWS V12.07,2013-01-20 01:42:00,
2013-01-19 17:48:00,50.5,14.1,26.28,SE,131,0.0,4.0,23,0.00,,,-99.99,VWS V12.07,2013-01-20 01:48:00,
2013-01-19 17:58:00,50.0,13.7,26.28,SW,221,3.2,4.5,23,0.00,,,-99.99,VWS V12.07,2013-01-20 01:58:00,
2013-01-19 18:04:00,50.5,14.1,26.28,NE,55,6.4,7.6,23,0.00,,,-99.99,VWS V12.07,2013-01-20 02:04:00,
2013-01-19 18:10:00,51.1,14.6,26.28,NE,51,4.8,7.6,23,0.00,,,-99.99,VWS V12.07,2013-01-20 02:10:00,
2013-01-19 18:18:00,51.3,14.7,26.28,East,87,0.0,7.6,23,0.00,,,-99.99,VWS V12.07,2013-01-20 02:18:00,
2013-01-19 18:24:00,50.4,14.0,26.28,East,87,0.0,0.0,23,0.00,,,-99.99,VWS V12.07,2013-01-20 02:24:00,
2013-01-19 18:30:00,49.8,13.5,26.28,East,87,0.0,0.0,23,0.00,,,-99.99,VWS V12.07,2013-01-20 02:30:00,
2013-01-19 18:36:00,49.3,13.1,26.28,East,87,0.0,3.1,23,0.00,,,-99.99,VWS V12.07,2013-01-20 02:36:00,
2013-01-19 18:42:00,49.3,13.1,26.28,East,87,3.2,3.2,23,0.00,,,-99.99,VWS V12.07,2013-01-20 02:42:00,
2013-01-19 18:48:00,49.1,12.9,26.28,South,179,0.0,3.6,23,0.00,,,-99.99,VWS V12.07,2013-01-20 02:48:00,
2013-01-19 18:54:00,48.7,12.6,26.28,South,179,0.0,3.6,23,0.00,,,-99.99,VWS V12.07,2013-01-20 02:54:00,
2013-01-19 19:00:00,48.7,12.6,26.28,South,179,0.0,3.6,23,0.00,,,-99.99,VWS V12.07,2013-01-20 03:00:00,
2013-01-19 19:08:00,48.7,12.6,26.28,South,179,0.0,0.0,23,0.00,,,-99.99,VWS V12.07,2013-01-20 03:08:00,
2013-01-19 19:14:00,49.1,12.9,26.28,South,179,0.0,0.0,23,0.00,,,-99.99,VWS V12.07,2013-01-20 03:14:00,
2013-01-19 19:20:00,49.3,13.1,26.28,SE,142,0.0,5.4,23,0.00,,,-99.99,VWS V12.07,2013-01-20 03:20:00,
2013-01-19 19:28:00,50.0,13.7,26.28,East,90,3.8,4.0,23,0.00,,,-99.99,VWS V12.07,2013-01-20 03:28:00,
2013-01-19 19:40:00,49.8,13.5,26.28,East,83,4.3,5.8,23,0.00,,,-99.99,VWS V12.07,2013-01-20 03:40:00,
2013-01-19 19:48:00,49.1,12.9,26.28,NE,55,0.0,5.4,23,0.00,,,-99.99,VWS V12.07,2013-01-20 03:48:00,
2013-01-19 19:54:00,49.6,13.4,26.28,ESE,107,4.3,5.8,23,0.00,,,-99.99,VWS V12.07,2013-01-20 03:54:00,
2013-01-19 20:00:00,50.0,13.7,26.28,ENE,58,0.0,5.8,23,0.00,,,-99.99,VWS V12.07,2013-01-20 04:00:00,
2013-01-19 20:08:00,49.1,12.9,26.28,ESE,105,3.2,6.3,23,0.00,,,-99.99,VWS V12.07,2013-01-20 04:08:00,
2013-01-19 20:14:00,48.7,12.6,26.28,East,83,0.0,6.3,23,0.00,,,-99.99,VWS V12.07,2013-01-20 04:14:00,
2013-01-19 20:20:00,48.6,12.5,26.28,ENE,58,3.2,3.2,23,0.00,,,-99.99,VWS V12.07,2013-01-20 04:20:00,
2013-01-19 20:28:00,48.4,12.3,26.28,East,87,4.8,4.8,23,0.00,,,-99.99,VWS V12.07,2013-01-20 04:28:00,
2013-01-19 20:34:00,48.6,12.5,26.28,North,359,5.4,5.4,23,0.00,,,-99.99,VWS V12.07,2013-01-20 04:34:00,
2013-01-19 20:40:00,49.3,13.1,26.28,NE,47,7.0,8.1,23,0.00,,,-99.99,VWS V12.07,2013-01-20 04:40:00,
2013-01-19 20:48:00,49.6,13.4,26.28,NE,37,3.2,7.6,23,0.00,,,-99.99,VWS V12.07,2013-01-20 04:48:00,
2013-01-19 20:54:00,48.2,12.1,26.28,NNE,15,0.0,7.6,23,0.00,,,-99.99,VWS V12.07,2013-01-20 04:54:00,
2013-01-19 21:04:00,47.7,12.7,26.28,West,271,0.0,0.0,24,0.00,,,-99.99,VWS V12.07,2013-01-20 05:04:00,
2013-01-19 21:06:00,47.5,12.5,26.28,West,271,0.0,0.0,24,0.00,,,-99.99,VWS V12.07,2013-01-20 05:06:00,
2013-01-19 21:08:00,47.5,12.5,26.28,West,271,0.0,0.0,24,0.00,,,-99.99,VWS V12.07,2013-01-20 05:08:00,
2013-01-19 21:14:00,47.5,12.5,26.28,North,5,0.0,6.3,24,0.00,,,-99.99,VWS V12.07,2013-01-20 05:14:00,
2013-01-19 21:20:00,46.8,11.9,26.28,North,350,0.0,6.3,24,0.00,,,-99.99,VWS V12.07,2013-01-20 05:20:00,
2013-01-19 21:26:00,46.0,11.3,26.28,North,350,0.0,0.0,24,0.00,,,-99.99,VWS V12.07,2013-01-20 05:26:00,
2013-01-19 21:30:00,46.0,11.3,26.28,North,3,3.8,5.8,24,0.00,,,-99.99,VWS V12.07,2013-01-20 05:30:00,
2013-01-19 21:36:00,45.5,10.8,26.28,NNW,329,0.0,5.8,24,0.00,,,-99.99,VWS V12.07,2013-01-20 05:36:00,
2013-01-19 21:42:00,45.0,10.4,26.28,NW,322,0.0,0.0,24,0.00,,,-99.99,VWS V12.07,2013-01-20 05:42:00,
2013-01-19 21:48:00,44.8,10.2,26.28,NW,320,0.0,0.0,24,0.00,,,-99.99,VWS V12.07,2013-01-20 05:48:00,
2013-01-19 21:54:00,44.2,10.7,26.28,SW,230,0.0,3.1,25,0.00,,,-99.99,VWS V12.07,2013-01-20 05:54:00,
2013-01-19 22:00:00,44.2,10.7,26.28,SW,229,0.0,3.1,25,0.00,,,-99.99,VWS V12.07,2013-01-20 06:00:00,
2013-01-19 22:06:00,44.2,10.7,26.28,NE,37,0.0,0.0,25,0.00,,,-99.99,VWS V12.07,2013-01-20 06:06:00,
2013-01-19 22:12:00,43.7,10.2,26.28,NE,37,0.0,0.0,25,0.00,,,-99.99,VWS V12.07,2013-01-20 06:12:00,
2013-01-19 22:18:00,43.5,10.0,26.28,NNW,330,3.2,4.0,25,0.00,,,-99.99,VWS V12.07,2013-01-20 06:18:00,
2013-01-19 22:24:00,43.0,9.6,26.28,WSW,244,0.0,3.1,25,0.00,,,-99.99,VWS V12.07,2013-01-20 06:24:00,
2013-01-19 22:30:00,42.8,9.4,26.28,WSW,244,0.0,3.1,25,0.00,,,-99.99,VWS V12.07,2013-01-20 06:30:00,
2013-01-19 22:36:00,41.4,8.2,26.28,WSW,244,0.0,3.1,25,0.00,,,-99.99,VWS V12.07,2013-01-20 06:36:00,
2013-01-19 22:42:00,40.6,7.6,26.28,ESE,107,0.0,0.0,25,0.00,,,-99.99,VWS V12.07,2013-01-20 06:42:00,
2013-01-19 22:48:00,39.6,4.8,26.28,East,90,0.0,0.0,23,0.00,,,-99.99,VWS V12.07,2013-01-20 06:48:00,
2013-01-19 22:54:00,38.8,6.9,26.28,East,90,0.0,0.0,26,0.00,,,-99.99,VWS V12.07,2013-01-20 06:54:00,
2013-01-19 23:00:00,38.8,6.9,26.28,East,90,0.0,0.0,26,0.00,,,-99.99,VWS V12.07,2013-01-20 07:00:00,
2013-01-19 23:06:00,38.1,3.6,26.28,East,90,0.0,0.0,23,0.00,,,-99.99,VWS V12.07,2013-01-20 07:06:00,
2013-01-19 23:12:00,38.1,3.6,26.28,East,90,0.0,0.0,23,0.00,,,-99.99,VWS V12.07,2013-01-20 07:12:00,
2013-01-19 23:18:00,37.8,3.3,26.28,East,90,0.0,0.0,23,0.00,,,-99.99,VWS V12.07,2013-01-20 07:18:00,
2013-01-19 23:24:00,37.6,3.2,26.28,East,90,0.0,0.0,23,0.00,,,-99.99,VWS V12.07,2013-01-20 07:24:00,
2013-01-19 23:30:00,36.9,3.5,26.28,East,90,0.0,0.0,24,0.00,,,-99.99,VWS V12.07,2013-01-20 07:30:00,
2013-01-19 23:36:00,36.1,2.8,26.28,East,90,0.0,0.0,24,0.00,,,-99.99,VWS V12.07,2013-01-20 07:36:00,
2013-01-19 23:42:00,36.0,2.7,26.28,East,90,0.0,3.1,24,0.00,,,-99.99,VWS V12.07,2013-01-20 07:42:00,
2013-01-19 23:48:00,35.6,2.4,26.28,East,90,0.0,3.1,24,0.00,,,-99.99,VWS V12.07,2013-01-20 07:48:00,
2013-01-19 23:54:00,35.4,2.2,26.28,East,90,0.0,3.1,24,0.00,,,-99.99,VWS V12.07,2013-01-20 07:54:00,